West Mifflin, PA (15122)

2:34 PM EDT on July 24, 2016 (GMT -0400)
Pleasant Hills | | Change Station
Active Advisory: Heat Advisory Active Notice: Local Storm Report

Elev 1148 ft 40.33 °N, 79.96 °W | Updated 12 minutes ago

Partly Cloudy
Partly Cloudy
93.2 °F
Feels Like 101 °F
N
2.2
Wind Variable Wind from SW

Today
High -- | Low -- °F
--% Chance of Precip.
Yesterday
High -- | Low -- °F
Precip. -- in
Pressure 29.99 in
Visibility 10.0 miles
Clouds Few 3700 ft
Heat Index 101 °F
Dew Point 71 °F
Humidity 49%
Rainfall 0.00 in
Snow Depth Not available.
6:10 AM 8:41 PM
Waning Gibbous, 74% visible
METAR KAGC 241753Z 23010KT 10SM FEW037 32/21 A3001 RMK AO2 SLP154 T03220211 10322 20211 58012
Pressure 29.99 in
Visibility 10.0 miles
Clouds Few 3700 ft
Heat Index 101 °F
Dew Point 71 °F
Humidity 49%
Rainfall 0.00 in
Snow Depth Not available.
6:10 AM 8:41 PM
Waning Gibbous, 74% visible
METAR KAGC 241753Z 23010KT 10SM FEW037 32/21 A3001 RMK AO2 SLP154 T03220211 10322 20211 58012

10-Day Weather Forecast

Almanac

Astronomy

Jul. 24, 2016 Rise Set
Actual Time
Civil Twilight
Nautical Twilight
Astronomical Twilight
Moon
Length of Visible Light
Length of Day
Tomorrow will be .
, % of the Moon is Illuminated

Today's Extremes

State Highs State Lows

Community

WunderPhotos

Upload Photos

1,927,153 photos uploaded!

WunderBlog® & News

Nearby

Air Quality

  Air Quality AQ Index Pollutant
Not available.

Snow Depth

Station Depth Elevation

Earthquake Activity

City Distance Mag. Time & Date
Minimum magnitude displayed is 2.5.

Coastal Water Temperatures

Place Temperature

Stations

Nearby Weather Stations

Station Location Temp. Windchill Dew Point Humidity Wind Precip. Elev Updated Type
                   

Watches & Warnings

Heat Advisory
Issued: 10:57 AM EDT Jul. 24, 2016 – National Weather Service

... Heat advisory remains in effect until 8 PM EDT this evening...

* heat index values... between 100 to 104 are forecast this
afternoon and evening.

* High temperatures... lower to mid 90s.

* Dewpoints... lower 70s.

* Impacts... heat related illnesses will begin to be seen. If you
are susceptible to heat... limit your outdoor activity.

Precautionary/preparedness actions...

Drink plenty of fluids... stay in air-conditioning... stay out of
the sun... and check up on elderly relatives and neighbors. Look
before you lock... never leave children and pets unattended in a
vehicle.



98